TimeEST,TemperatureF,Dew PointF,Humidity,Sea Level PressureIn,VisibilityMPH,Wind Direction,Wind SpeedMPH,Gust SpeedMPH,PrecipitationIn,Events,Conditions,WindDirDegrees,DateUTC
12:15 AM,3.6,-7.2,61,30.09,10.0,WNW,5.8,-,N/A,,Clear,300,2014-01-24 05:15:00
12:35 AM,3.2,-7.8,60,30.09,10.0,West,6.9,-,N/A,,Clear,280,2014-01-24 05:35:00
12:55 AM,3.0,-8.1,60,30.09,10.0,WNW,6.9,-,N/A,,Clear,290,2014-01-24 05:55:00
1:15 AM,2.7,-8.5,60,30.10,10.0,West,8.1,-,N/A,,Clear,280,2014-01-24 06:15:00
1:35 AM,1.8,-8.9,61,30.11,10.0,NW,6.9,-,N/A,,Clear,320,2014-01-24 06:35:00
1:55 AM,1.2,-9.4,61,30.11,10.0,WNW,9.2,-,N/A,,Clear,290,2014-01-24 06:55:00
2:15 AM,0.9,-9.4,62,30.12,10.0,West,6.9,-,N/A,,Clear,280,2014-01-24 07:15:00
2:35 AM,0.5,-9.8,62,30.13,10.0,West,6.9,-,N/A,,Clear,280,2014-01-24 07:35:00
2:55 AM,0.3,-10.1,61,30.13,10.0,West,8.1,-,N/A,,Clear,280,2014-01-24 07:55:00
3:15 AM,-0.0,-10.3,62,30.13,10.0,West,10.4,-,N/A,,Clear,280,2014-01-24 08:15:00
3:35 AM,-0.4,-10.5,62,30.14,10.0,West,10.4,19.6,N/A,,Clear,270,2014-01-24 08:35:00
3:55 AM,-0.8,-10.5,63,30.14,10.0,West,15.0,-,N/A,,Clear,270,2014-01-24 08:55:00
4:15 AM,-0.8,-11.0,62,30.14,10.0,West,13.8,21.9,N/A,,Clear,270,2014-01-24 09:15:00
4:35 AM,-0.6,-11.2,61,30.14,10.0,West,13.8,23.0,N/A,,Clear,270,2014-01-24 09:35:00
4:55 AM,-0.4,-11.2,60,30.14,10.0,West,12.7,19.6,N/A,,Clear,280,2014-01-24 09:55:00
5:15 AM,-0.6,-11.2,61,30.15,10.0,WNW,10.4,19.6,N/A,,Clear,300,2014-01-24 10:15:00
5:35 AM,-1.1,-11.2,62,30.15,10.0,WNW,8.1,-,N/A,,Clear,300,2014-01-24 10:35:00
5:55 AM,-1.5,-11.2,63,30.16,10.0,NW,5.8,-,N/A,,Clear,320,2014-01-24 10:55:00
6:15 AM,-1.1,-11.4,62,30.16,10.0,West,10.4,17.3,N/A,,Clear,280,2014-01-24 11:15:00
6:35 AM,-1.3,-11.7,61,30.17,10.0,Calm,Calm,-,N/A,,Clear,0,2014-01-24 11:35:00
6:55 AM,-0.8,-11.2,61,30.18,10.0,West,9.2,-,N/A,,Clear,280,2014-01-24 11:55:00
7:15 AM,-1.1,-11.6,61,30.18,10.0,West,8.1,-,N/A,,Clear,280,2014-01-24 12:15:00
7:35 AM,-0.9,-11.4,61,30.19,10.0,West,9.2,18.4,N/A,,Clear,270,2014-01-24 12:35:00
7:55 AM,-0.4,-11.6,59,30.19,10.0,West,6.9,17.3,N/A,,Clear,280,2014-01-24 12:55:00
8:15 AM,-0.0,-11.4,59,30.19,10.0,West,10.4,17.3,N/A,,Clear,280,2014-01-24 13:15:00
8:35 AM,0.3,-11.2,58,30.19,10.0,WNW,10.4,19.6,N/A,,Clear,290,2014-01-24 13:35:00
8:55 AM,1.2,-11.2,56,30.19,10.0,West,11.5,-,N/A,,Clear,280,2014-01-24 13:55:00
9:15 AM,2.1,-11.0,54,30.20,10.0,West,11.5,17.3,N/A,,Clear,280,2014-01-24 14:15:00
9:35 AM,2.3,-10.8,54,30.21,10.0,West,11.5,19.6,N/A,,Clear,270,2014-01-24 14:35:00
9:55 AM,3.0,-10.7,53,30.20,10.0,West,9.2,17.3,N/A,,Clear,280,2014-01-24 14:55:00
10:15 AM,3.7,-10.3,52,30.20,10.0,West,11.5,-,N/A,,Clear,270,2014-01-24 15:15:00
10:35 AM,4.6,-9.8,51,30.19,10.0,West,12.7,18.4,N/A,,Clear,270,2014-01-24 15:35:00
10:55 AM,5.0,-9.6,51,30.19,10.0,West,16.1,20.7,N/A,,Clear,270,2014-01-24 15:55:00
11:15 AM,5.5,-9.2,51,30.18,10.0,West,12.7,21.9,N/A,,Clear,270,2014-01-24 16:15:00
11:35 AM,6.6,-9.0,49,30.17,10.0,West,12.7,19.6,N/A,,Clear,280,2014-01-24 16:35:00
11:55 AM,7.2,-9.2,47,30.16,10.0,West,11.5,17.3,N/A,,Clear,280,2014-01-24 16:55:00
12:15 PM,7.9,-8.9,47,30.15,10.0,WNW,11.5,17.3,N/A,,Clear,290,2014-01-24 17:15:00
12:35 PM,9.0,-8.3,46,30.14,10.0,West,12.7,19.6,N/A,,Clear,280,2014-01-24 17:35:00
12:55 PM,9.5,-8.7,44,30.13,10.0,West,11.5,25.3,N/A,,Clear,280,2014-01-24 17:55:00
1:15 PM,9.9,-8.3,44,30.12,10.0,WNW,5.8,18.4,N/A,,Clear,290,2014-01-24 18:15:00
1:35 PM,10.8,-8.0,43,30.12,10.0,West,8.1,-,N/A,,Clear,280,2014-01-24 18:35:00
1:55 PM,11.3,-8.7,40,30.11,10.0,West,10.4,-,N/A,,Clear,270,2014-01-24 18:55:00
2:15 PM,11.7,-9.2,39,30.10,10.0,West,9.2,17.3,N/A,,Clear,280,2014-01-24 19:15:00
2:35 PM,11.8,-9.0,39,30.09,10.0,WNW,5.8,-,N/A,,Clear,290,2014-01-24 19:35:00
2:55 PM,12.2,-9.8,37,30.09,10.0,West,8.1,-,N/A,,Clear,270,2014-01-24 19:55:00
3:15 PM,12.4,-9.9,36,30.08,10.0,West,4.6,-,N/A,,Clear,280,2014-01-24 20:15:00
3:35 PM,12.0,-9.9,37,30.07,10.0,WNW,3.5,-,N/A,,Clear,290,2014-01-24 20:35:00
3:55 PM,12.6,-10.3,35,30.07,10.0,WNW,5.8,-,N/A,,Clear,300,2014-01-24 20:55:00
4:15 PM,10.6,-8.5,42,30.07,10.0,SSW,3.5,-,N/A,,Clear,210,2014-01-24 21:15:00
4:35 PM,10.6,-10.5,38,30.07,10.0,Calm,Calm,-,N/A,,Clear,0,2014-01-24 21:35:00
4:55 PM,10.2,-11.2,38,30.06,10.0,Calm,Calm,-,N/A,,Clear,0,2014-01-24 21:55:00
5:15 PM,9.1,-9.6,43,30.06,10.0,Calm,Calm,-,N/A,,Clear,0,2014-01-24 22:15:00
5:35 PM,6.1,-7.2,54,30.07,10.0,Calm,Calm,-,N/A,,Clear,0,2014-01-24 22:35:00
5:55 PM,4.8,-6.7,59,30.07,10.0,Calm,Calm,-,N/A,,Clear,0,2014-01-24 22:55:00
6:15 PM,3.2,-6.5,64,30.07,10.0,Calm,Calm,-,N/A,,Clear,0,2014-01-24 23:15:00
6:35 PM,1.8,-6.5,68,30.08,10.0,Calm,Calm,-,N/A,,Clear,0,2014-01-24 23:35:00
6:55 PM,0.3,-6.9,72,30.08,10.0,Calm,Calm,-,N/A,,Clear,0,2014-01-24 23:55:00
7:15 PM,-0.2,-6.7,74,30.07,10.0,Calm,Calm,-,N/A,,Clear,0,2014-01-25 00:15:00
7:35 PM,-0.4,-6.7,75,30.06,10.0,Calm,Calm,-,N/A,,Clear,0,2014-01-25 00:35:00
7:55 PM,-1.3,-6.9,77,30.05,10.0,Calm,Calm,-,N/A,,Clear,0,2014-01-25 00:55:00
8:15 PM,-1.1,-6.7,77,30.05,10.0,Calm,Calm,-,N/A,,Clear,0,2014-01-25 01:15:00
8:35 PM,-1.8,-6.3,81,30.04,10.0,Calm,Calm,-,N/A,,Clear,0,2014-01-25 01:35:00
8:55 PM,-1.5,-6.3,80,30.04,10.0,Calm,Calm,-,N/A,,Mostly Cloudy,0,2014-01-25 01:55:00
9:15 PM,-0.8,-5.8,79,30.03,10.0,Calm,Calm,-,N/A,,Overcast,0,2014-01-25 02:15:00
9:35 PM,0.3,-4.9,79,30.02,10.0,Calm,Calm,-,N/A,,Overcast,0,2014-01-25 02:35:00
9:55 PM,0.9,-4.9,77,30.01,10.0,Calm,Calm,-,N/A,,Overcast,0,2014-01-25 02:55:00
10:15 PM,1.2,-4.7,76,30.00,10.0,Calm,Calm,-,N/A,,Mostly Cloudy,0,2014-01-25 03:15:00
10:35 PM,1.6,-4.0,77,29.98,10.0,Calm,Calm,-,N/A,,Overcast,0,2014-01-25 03:35:00
10:55 PM,2.3,-3.5,77,29.98,10.0,Calm,Calm,-,N/A,,Mostly Cloudy,0,2014-01-25 03:55:00
11:15 PM,2.3,-3.6,76,29.96,10.0,Calm,Calm,-,N/A,,Scattered Clouds,0,2014-01-25 04:15:00
11:35 PM,2.5,-2.9,78,29.95,10.0,Calm,Calm,-,N/A,,Scattered Clouds,0,2014-01-25 04:35:00
11:55 PM,2.8,-2.6,78,29.94,10.0,Calm,Calm,-,N/A,,Scattered Clouds,0,2014-01-25 04:55:00